DW0999 Weather Reports


time (UTC)temp
C
wind
direction
speed
KPH
gust
KPH
rain 1hr
cm
rain 24hr
cm
rain mn
cm
humidity
%
barometer
mb
20190818022232 15 66 0.0 0.0 0.00 0.05 0.00 89 1011.2
20190818020730 15 66 0.0 0.0 0.00 0.05 0.00 90 1011.6
20190818015230 15 63 0.0 0.0 0.00 0.05 0.00 90 1011.6
20190818013730 15 59 0.0 0.0 0.00 0.05 0.00 90 1011.7
20190818012230 15 58 0.0 0.0 0.00 0.05 0.00 91 1011.9
20190818010729 15 58 0.0 0.0 0.00 0.05 0.00 90 1012.1
20190818005228 15 58 0.0 0.0 0.00 0.05 0.00 90 1012.1
20190818003728 15 58 0.0 0.0 0.00 0.05 0.00 92 1012.3
20190818002227 15 58 0.0 0.0 0.00 0.05 0.00 90 1012.4
20190818000727 15 47 0.0 0.0 0.00 0.05 0.00 90 1012.2
20190817235227 15 45 0.0 0.0 0.00 0.05 0.00 90 1012.4
20190817233726 16 45 0.0 0.0 0.00 0.05 0.00 90 1012.6
20190817232227 16 44 0.0 0.0 0.00 0.05 0.00 89 1012.7
20190817230726 16 353 0.0 0.0 0.00 0.05 0.00 89 1012.7
20190817225225 16 351 0.0 0.0 0.00 0.05 0.00 89 1012.8
20190817223725 16 337 0.0 0.0 0.00 0.05 0.00 88 1012.9
20190817222225 16 337 0.0 0.0 0.00 0.05 0.00 88 1013.1
20190817220724 16 337 0.0 0.0 0.00 0.05 0.00 88 1013.3
20190817215224 16 337 0.0 0.0 0.00 0.05 0.05 88 1013.3
20190817213723 16 340 0.0 0.0 0.00 0.05 0.05 88 1013.2
20190817212224 16 327 0.0 8.0 0.00 0.05 0.05 88 1013.3
20190817210723 16 324 4.8 8.0 0.00 0.05 0.05 88 1013.4
20190817205222 16 333 3.2 6.4 0.00 0.05 0.05 88 1013.4
20190817203722 16 300 1.6 16.1 0.00 0.05 0.05 87 1013.7
20190817202222 16 347 8.0 16.1 0.00 0.05 0.05 85 1013.8
20190817200721 17 323 6.4 14.5 0.00 0.05 0.05 83 1013.7
20190817195223 17 312 3.2 8.0 0.00 0.05 0.05 82 1014.0
20190817193721 17 316 0.0 8.0 0.00 0.05 0.05 84 1014.1
20190817192220 18 310 4.8 8.0 0.03 0.05 0.05 83 1014.0
20190817190720 18 293 0.0 6.4 0.03 0.05 0.05 85 1013.7
20190817185219 18 321 6.4 8.0 0.03 0.05 0.05 80 1013.4
20190817183719 18 264 0.0 4.8 0.03 0.05 0.05 81 1013.3
20190817182219 19 168 0.0 3.2 0.03 0.03 0.03 81 1013.5
20190817180718 19 269 1.6 4.8 0.03 0.03 0.03 81 1013.4
20190817175218 20 179 0.0 0.0 0.03 0.03 0.03 81 1013.3
20190817173717 20 178 0.0 4.8 0.03 0.03 0.03 76 1013.5
20190817172217 21 266 0.0 9.7 0.00 0.00 0.00 72 1013.5
20190817170717 21 186 4.8 8.0 0.00 0.00 0.00 69 1013.2
20190817170102 21 265 3.2 6.4 0.00 0.00 0.00 68 1013.3
20190817164602 21 214 3.2 14.5 0.00 0.00 0.00 68 1013.2
20190817163102 22 272 0.0 6.4 0.00 0.00 0.00 68 1013.2
20190817161602 22 168 0.0 0.0 0.00 0.00 0.00 68 1013.0
20190817160104 22 168 0.0 6.4 0.00 0.00 0.00 66 1013.1
20190817154603 23 161 3.2 9.7 0.00 0.00 0.00 59 1013.0
20190817153102 23 185 3.2 9.7 0.00 0.00 0.00 57 1012.8
20190817151602 23 196 4.8 11.3 0.00 0.00 0.00 56 1012.7
20190817150102 23 152 1.6 11.3 0.00 0.00 0.00 56 1012.7
20190817144602 24 127 1.6 6.4 0.00 0.00 0.00 57 1012.9
20190817143101 23 199 3.2 0.0 0.00 0.00 0.00 61 1013.1
20190817141603 23 97 1.6 3.2 0.00 0.00 0.00 64 1013.0
20190817140103 23 96 3.2 8.0 0.00 0.00 0.00 61 1013.0
20190817134602 23 90 0.0 6.4 0.00 0.00 0.00 62 1013.1
20190817133102 23 214 0.0 8.0 0.00 0.00 0.00 63 1013.2
20190817131602 23 96 3.2 8.0 0.00 0.00 0.00 62 1013.2
20190817130102 23 111 3.2 9.7 0.00 0.00 0.00 60 1013.3
20190817124602 22 117 6.4 9.7 0.00 0.00 0.00 63 1013.5
20190817123101 22 55 3.2 9.7 0.00 0.00 0.00 65 1013.6
20190817121602 22 172 3.2 11.3 0.00 0.00 0.00 64 1013.7
20190817120104 22 226 0.0 8.0 0.00 0.00 0.00 73 1013.8
20190817114602 21 227 1.6 8.0 0.00 0.00 0.00 72 1014.3
20190817113102 21 276 4.8 9.7 0.00 0.00 0.00 72 1014.8
20190817111606 21 147 0.0 11.3 0.00 0.00 0.00 74 1014.5
20190817110103 21 189 0.0 8.0 0.00 0.00 0.00 71 1014.7
20190817104603 21 161 3.2 9.7 0.00 0.00 0.00 67 1014.6
20190817103102 21 103 4.8 9.7 0.00 0.00 0.00 71 1014.5
20190817101602 21 85 3.2 8.0 0.00 0.00 0.00 70 1014.6
20190817100108 20 151 6.4 8.0 0.00 0.00 0.00 72 1014.6
20190817094602 20 243 1.6 8.0 0.00 0.00 0.00 75 1014.7
20190817093101 20 327 0.0 11.3 0.00 0.00 0.00 74 1014.5
20190817091602 19 274 3.2 8.0 0.00 0.00 0.00 75 1014.4
20190817090103 19 226 3.2 6.4 0.00 0.00 0.00 75 1014.5
20190817084602 18 96 6.4 14.5 0.00 0.00 0.00 75 1014.7
20190817083102 18 258 1.6 8.0 0.00 0.00 0.00 76 1014.8
20190817081602 17 90 3.2 8.0 0.00 0.00 0.00 80 1014.8
20190817080102 16 175 3.2 8.0 0.00 0.00 0.00 84 1015.0
20190817074602 15 165 1.6 4.8 0.00 0.00 0.00 86 1014.9
20190817073102 15 161 0.0 6.4 0.00 0.00 0.00 87 1014.9
20190817071603 15 96 4.8 9.7 0.00 0.00 0.00 87 1014.5
20190817070103 15 94 4.8 9.7 0.00 0.00 0.00 89 1014.6
20190817064602 14 111 6.4 9.7 0.00 0.00 0.00 89 1014.5
20190817063102 14 96 3.2 6.4 0.00 0.00 0.00 89 1014.9
20190817061602 14 93 0.0 0.0 0.00 0.00 0.00 90 1015.0
20190817060102 13 93 0.0 0.0 0.00 0.00 0.00 91 1014.8
20190817054601 13 102 0.0 0.0 0.00 0.00 0.00 92 1014.7
20190817053102 13 104 0.0 0.0 0.00 0.00 0.00 92 1014.5
20190817051602 12 107 0.0 0.0 0.00 0.00 0.00 93 1014.4
20190817050102 12 107 0.0 0.0 0.00 0.00 0.00 92 1014.4
20190817044602 12 107 0.0 0.0 0.00 0.00 0.00 92 1014.4
20190817043101 12 107 0.0 1.6 0.00 0.00 0.00 92 1014.4
20190817041601 12 107 0.0 4.8 0.00 0.00 0.00 92 1014.6
20190817040101 12 107 3.2 4.8 0.00 0.00 0.00 92 1014.5
20190817034600 12 109 0.0 0.0 0.00 0.00 0.00 92 1014.6
20190817033059 12 109 0.0 0.0 0.00 0.00 0.00 92 1014.7
20190817031559 12 109 0.0 0.0 0.00 0.00 0.00 92 1014.5
20190817030059 12 109 0.0 4.8 0.00 0.00 0.00 92 1014.3
20190817024600 12 109 3.2 4.8 0.00 0.00 0.00 92 1014.3